Theta_e
341 334 334 344 353 356 356 353 351 353 349 346 343 341 342 342 346 347 341 333 332 336 338 337 336 335 334 335 338 338 335 336 332 340 334 334 329 329 328 328 329 333 336 336 335 336 338 337 335
341 335 339 349 358 355 355 352 355 352 348 345 347 346 349 349 348 342 337 334 336 337 337 336 335 335 335 335 336 338 337 334 336 336 335 337 337 332 340 336 329 332 332 335 335 337 338 341 340
342 344 349 351 352 357 357 354 354 349 345 348 351 350 350 347 345 337 336 335 336 334 335 335 335 335 335 336 337 336 335 332 339 334 337 335 339 337 327 340 336 338 336 333 335 335 338 344 344
349 350 344 351 355 353 352 352 352 351 351 350 350 351 346 347 339 337 335 335 334 335 335 337 337 338 337 336 338 336 335 341 336 334 339 335 339 340 337 335 336 336 336 336 333 334 343 343 343
351 349 350 353 354 352 350 350 348 350 351 350 350 349 345 343 339 334 332 333 334 335 337 339 339 338 338 343 340 333 339 340 334 339 337 332 338 338 337 337 338 335 332 333 335 341 342 342 343
351 348 355 356 354 352 348 347 347 350 351 350 348 348 348 345 338 333 333 335 336 337 338 339 338 338 334 332 337 340 341 339 333 338 338 340 339 339 336 333 335 338 338 333 336 341 343 343 341
352 348 356 353 355 354 349 346 349 352 351 350 348 349 348 347 336 333 336 336 337 338 338 338 337 333 339 341 341 341 340 335 336 337 338 336 338 340 340 338 337 337 336 335 340 342 341 341 340
350 349 354 354 356 352 349 347 352 352 351 349 348 348 348 346 334 335 337 338 338 339 339 336 335 342 341 339 340 340 338 339 339 337 336 335 338 340 340 339 339 339 330 336 341 342 342 340 340
350 353 356 354 353 353 353 353 353 349 350 350 349 347 347 341 335 336 338 340 340 339 334 335 339 339 338 342 339 341 341 336 337 338 337 336 337 338 338 337 338 335 330 332 339 341 340 340 340
347 353 353 349 350 350 351 351 350 348 349 348 348 348 345 339 337 338 340 340 340 336 332 337 338 337 341 341 340 338 336 338 338 337 335 334 335 337 337 338 338 335 335 329 334 339 341 340 340
346 352 348 349 349 348 350 351 347 347 347 350 348 348 345 346 344 341 340 338 335 330 333 334 338 338 338 340 339 336 336 340 340 338 334 334 334 334 336 336 336 334 333 332 332 340 341 342 341
337 340 345 348 350 348 350 347 347 347 351 350 347 348 347 346 343 340 338 334 328 332 334 334 332 336 337 337 337 335 341 344 343 339 337 335 333 333 335 336 336 334 335 336 339 340 340 340 340
334 336 336 338 350 347 349 349 349 348 349 349 346 346 346 343 340 337 333 330 329 331 334 331 334 335 336 336 333 335 339 345 343 342 338 339 341 340 337 336 337 338 338 338 338 338 339 340 339
332 333 333 333 341 347 349 348 347 348 350 349 346 345 344 344 343 341 339 334 330 330 333 331 332 335 336 335 339 340 343 344 344 343 343 343 342 342 342 341 340 338 336 338 337 335 340 341 340
333 333 327 346 343 346 346 348 347 347 351 351 347 346 345 345 346 344 342 331 332 331 331 333 333 335 335 338 339 340 342 343 343 344 344 344 344 342 341 342 342 340 336 338 339 339 339 340 342
325 322 325 345 351 348 346 352 348 350 352 350 347 346 346 346 346 345 343 335 335 333 330 334 334 338 342 342 342 340 342 344 343 345 344 344 344 342 343 343 340 342 338 337 340 341 340 340 338
322 329 328 327 349 350 347 349 347 350 352 349 348 347 346 346 347 347 345 341 335 332 332 335 336 342 343 344 345 344 344 344 344 345 343 346 344 342 342 342 340 341 341 340 340 341 340 339 338
329 327 325 328 349 351 351 350 347 349 351 350 348 347 346 346 346 346 346 343 337 334 334 337 337 340 342 345 346 345 344 346 347 346 347 345 343 343 344 342 343 339 340 340 340 341 341 342 342
326 325 325 324 324 324 327 344 347 349 350 350 349 347 347 347 346 345 345 343 339 339 339 340 341 341 342 344 346 345 345 345 347 347 347 346 346 342 342 344 343 343 340 340 341 340 341 341 341
325 326 325 325 323 322 330 339 347 348 349 349 349 348 347 347 347 346 345 344 342 341 342 343 343 342 343 341 341 345 344 343 345 347 347 343 343 344 345 342 344 343 343 340 340 340 340 340 340
325 324 325 326 323 341 345 336 350 346 346 349 349 348 347 348 346 346 345 344 343 341 343 343 344 342 343 342 342 343 344 346 346 345 348 345 345 346 345 343 343 345 343 340 339 342 342 340 340
327 323 325 325 321 321 324 320 338 347 346 345 346 348 348 347 345 344 344 344 343 342 341 342 344 344 343 344 344 342 342 343 344 345 347 346 344 346 346 346 342 345 343 340 341 341 341 340 341
325 323 323 323 319 319 320 318 320 345 348 346 346 345 348 348 347 343 344 344 343 343 341 342 343 344 343 344 344 343 344 343 343 347 347 348 345 345 345 346 343 343 342 342 342 341 342 340 339
323 318 314 313 314 319 319 318 319 347 348 347 345 346 346 348 348 347 343 344 344 344 343 342 343 344 344 344 342 342 341 343 343 344 346 347 347 345 345 346 345 343 343 339 341 340 341 339 338
316 315 317 319 319 320 314 318 319 320 324 342 344 345 346 347 347 346 347 343 343 344 343 342 342 344 343 344 341 337 337 340 340 341 344 347 348 345 341 346 344 343 344 347 340 340 339 340 339
315 315 316 322 319 319 315 320 327 325 328 333 340 344 344 346 345 343 347 346 345 344 344 343 342 342 344 344 342 340 337 335 332 339 340 344 346 345 344 342 346 347 343 346 342 339 339 343 340
314 313 313 314 313 317 317 320 319 325 327 327 330 339 342 343 344 343 344 347 347 345 346 344 343 342 343 342 343 342 339 334 332 337 339 343 344 346 346 346 345 346 347 344 343 343 340 340 341
311 311 315 313 320 322 318 319 322 324 324 325 328 332 340 337 343 343 345 346 347 347 347 347 346 344 341 342 343 343 341 335 332 333 336 340 344 345 346 348 348 347 344 347 342 345 344 344 342
311 311 309 309 312 318 319 324 316 316 319 323 326 333 336 342 341 341 346 345 345 347 347 347 347 347 343 342 343 343 342 340 335 331 332 337 343 343 345 345 347 348 345 343 344 341 340 341 343
309 310 308 311 315 310 314 321 313 312 315 321 323 327 340 345 341 338 339 346 347 347 346 347 347 347 346 344 343 344 344 342 340 332 329 334 340 342 347 345 346 347 347 347 347 346 346 343 340
Wind_Speed
7 7 6 2 2 2 2 3 2 3 4 8 23 8 9 10 4 3 22 37 33 31 28 24 21 18 15 10 10 8 7 6 6 8 7 7 8 7 8 7 8 8 10 10 10 10 11 12 14
7 8 4 2 1 3 3 4 6 7 3 27 11 16 4 3 3 14 37 35 32 30 27 23 20 18 15 11 8 7 8 7 8 7 8 8 7 7 9 7 9 10 10 11 11 11 11 12 15
8 6 1 0 2 2 1 5 8 6 25 16 5 9 4 3 6 37 36 36 32 28 25 21 18 17 14 11 8 8 7 7 8 7 9 8 9 9 10 10 10 10 11 11 11 11 11 12 12
7 2 2 1 3 1 1 4 12 5 10 6 12 8 5 4 31 27 37 36 31 28 23 20 17 15 13 11 9 8 7 9 8 10 9 7 9 9 9 10 10 11 11 12 13 14 15 14 12
7 2 2 2 3 2 1 2 8 8 1 7 1 4 8 10 18 33 37 33 29 27 22 18 16 15 13 12 9 9 9 10 8 8 8 9 8 8 9 11 10 9 12 13 15 16 14 13 12
1 2 1 1 1 3 2 6 7 6 3 10 11 7 5 9 24 38 35 30 28 24 21 17 16 14 11 10 10 10 9 10 8 8 8 8 8 9 10 11 11 11 12 14 16 15 12 11 11
1 1 2 4 3 2 3 5 3 2 8 7 14 4 12 15 31 36 32 29 25 21 18 17 15 12 11 11 10 11 10 10 9 8 7 7 9 10 10 12 11 11 11 15 16 13 12 12 11
2 1 2 3 4 3 5 5 1 8 10 15 8 6 9 25 36 34 30 26 23 20 18 17 15 14 13 12 12 12 12 10 8 7 7 8 10 10 11 11 12 10 11 14 14 12 11 10 10
2 2 2 1 5 6 11 7 2 6 3 3 3 13 23 36 34 33 29 25 23 21 18 16 15 14 13 13 13 13 12 11 10 9 9 11 12 11 11 10 11 10 10 13 13 11 10 11 11
2 1 4 2 4 3 9 7 7 3 5 11 18 21 33 36 34 34 31 28 25 22 19 17 16 15 14 14 13 14 13 12 11 11 11 13 13 12 11 11 10 9 9 11 11 9 8 9 8
5 2 3 3 6 9 6 9 8 8 1 3 24 34 37 34 34 33 30 28 26 22 20 18 16 16 15 14 14 15 14 12 12 11 11 11 12 12 11 10 9 9 10 11 11 7 8 7 6
2 11 10 7 9 8 6 10 3 7 6 8 26 37 36 34 35 33 30 28 25 23 20 19 17 16 15 14 15 16 16 12 10 10 10 9 10 10 11 10 9 9 10 10 10 6 4 5 3
4 7 10 14 13 8 10 8 2 8 8 15 33 33 34 34 32 29 27 25 24 23 21 19 19 18 17 17 17 16 15 12 11 11 10 11 9 9 10 10 9 9 8 8 8 5 4 4 6
2 7 16 12 16 12 10 5 3 8 10 22 31 33 35 33 32 29 26 24 25 23 22 21 21 19 18 18 19 14 13 13 11 9 9 7 4 4 6 7 8 5 8 8 8 7 4 7 7
5 2 5 6 10 6 17 2 6 7 18 23 32 31 36 33 31 28 23 24 23 23 23 23 22 21 19 19 16 13 13 10 9 8 7 6 6 5 5 5 8 7 10 12 8 8 10 6 6
3 4 2 1 4 11 2 4 5 14 22 25 32 30 34 36 33 29 25 24 23 25 26 25 24 23 20 18 16 15 12 9 8 6 6 6 6 5 4 4 6 8 10 11 11 10 11 5 8
5 3 2 4 8 6 2 5 6 15 16 25 29 33 31 33 32 32 30 25 24 26 27 26 27 25 21 18 14 13 11 9 8 7 5 5 5 3 3 5 7 8 10 14 11 10 8 9 7
3 5 2 4 5 5 5 10 5 19 17 22 28 31 29 35 34 32 33 29 27 29 30 26 26 24 21 16 15 14 12 11 10 8 5 5 3 5 3 5 7 10 13 13 13 11 9 6 5
3 5 3 2 4 3 7 9 4 15 13 18 23 26 32 34 33 32 34 33 30 32 32 30 26 26 23 19 17 17 15 11 10 8 5 6 6 5 5 5 6 9 11 11 11 12 8 6 3
3 1 1 3 2 4 3 3 4 8 9 20 26 25 28 29 36 33 36 39 36 36 33 32 28 27 25 20 18 17 14 12 10 8 6 6 6 6 7 5 5 5 8 10 11 10 7 7 4
2 4 2 3 4 4 2 4 2 1 1 10 19 25 24 31 33 37 39 40 41 41 38 34 31 29 27 23 22 20 16 14 14 12 10 7 6 4 6 6 6 6 7 9 10 6 4 5 4
1 7 5 3 3 2 2 3 2 3 4 5 11 25 28 31 27 37 42 41 45 44 39 35 33 32 29 27 26 23 22 19 16 14 10 8 8 7 6 7 7 6 9 9 8 6 5 9 7
7 4 6 4 3 3 3 4 4 2 7 13 19 24 32 33 29 32 44 43 41 44 42 39 36 35 31 30 30 27 25 20 17 15 14 12 9 9 8 7 8 8 8 11 11 9 8 8 8
4 5 7 5 3 2 5 5 4 5 7 11 16 27 31 36 36 29 36 43 44 43 44 42 41 38 34 31 30 32 28 24 22 19 16 14 11 10 11 10 9 9 9 9 13 13 11 11 10
5 6 2 2 2 5 3 4 5 6 9 11 15 25 34 39 38 35 34 41 45 47 46 44 43 43 36 34 31 30 32 29 25 22 19 15 15 12 13 11 9 9 10 8 11 14 13 10 10
3 7 5 5 5 3 4 4 1 5 16 17 10 13 24 34 39 34 39 39 43 46 46 48 47 45 41 36 33 29 30 32 29 26 22 20 17 13 10 12 11 8 8 11 9 13 12 12 12
3 4 3 7 3 4 2 3 3 9 16 22 24 4 9 20 33 42 36 41 41 46 47 48 48 48 46 38 35 32 30 30 30 29 25 24 20 17 15 13 12 12 11 10 13 13 14 15 14
7 1 3 3 4 3 3 3 4 13 16 15 19 20 13 8 22 29 37 43 45 47 47 48 46 46 49 44 38 35 32 31 30 30 29 27 24 22 20 20 17 13 14 12 12 13 13 17 16
5 5 6 5 3 5 4 2 5 6 7 11 20 26 25 20 14 28 33 39 48 49 48 49 50 48 50 49 44 39 35 32 31 30 31 29 27 24 21 20 20 18 14 14 12 11 13 13 14
5 3 3 4 3 1 3 3 4 8 14 16 22 27 25 23 19 14 32 37 40 47 49 50 49 49 49 50 49 42 38 34 33 32 32 31 31 28 23 20 20 21 19 17 16 15 14 14 14
Wind_Direction
143 144 142 128 332 272 340 18 320 314 118 155 147 137 169 137 169 188 147 159 162 159 159 159 162 163 159 143 133 140 147 131 121 126 127 122 126 132 138 147 154 152 139 132 127 121 111 109 109
142 143 141 81 345 329 8 8 313 277 148 137 123 125 114 107 97 142 148 157 163 159 160 163 166 167 166 159 146 146 145 137 134 132 128 126 118 121 127 123 143 145 148 143 136 128 123 120 117
136 136 129 7 125 240 321 25 354 19 131 137 101 103 76 99 147 144 149 156 161 158 160 163 164 167 172 166 154 149 146 140 132 130 131 123 130 119 123 126 132 138 143 149 143 133 129 127 126
149 152 49 89 41 118 20 338 354 129 100 84 107 74 85 171 140 147 150 157 160 158 161 162 163 170 173 167 163 153 152 141 132 134 124 126 125 116 120 127 122 132 136 142 142 137 134 124 124
152 96 94 175 184 241 158 289 355 322 20 109 88 85 98 137 152 151 151 158 160 158 161 161 162 165 164 164 166 162 153 140 132 124 115 117 120 115 122 116 116 138 138 139 136 135 135 130 119
98 159 235 93 39 341 356 356 342 308 120 117 97 105 97 160 158 153 154 157 159 159 161 161 161 165 164 165 158 154 148 138 137 135 128 127 123 119 115 121 122 118 125 133 137 136 131 124 122
237 142 286 124 134 57 343 357 287 8 144 107 132 90 133 153 161 155 155 157 160 162 163 159 161 164 158 157 159 154 148 144 138 134 133 139 129 122 121 126 121 120 125 134 135 132 123 112 115
261 151 298 70 100 217 201 190 220 60 61 139 123 144 158 163 162 156 158 160 161 163 164 164 162 162 162 161 157 154 149 141 140 136 144 145 133 126 118 123 119 122 129 140 138 130 111 109 117
255 359 349 172 147 167 184 180 112 75 107 196 154 153 162 160 161 160 161 164 164 165 168 168 166 167 161 162 159 157 152 141 138 132 141 149 142 134 129 126 120 122 131 146 145 131 115 111 112
142 210 212 263 153 187 140 165 143 101 0 73 97 145 158 160 163 165 166 168 169 168 169 170 169 167 163 161 162 161 152 143 136 124 125 141 142 136 135 128 124 124 129 137 150 133 127 125 109
180 235 214 164 157 150 148 149 153 142 215 192 144 148 161 164 168 171 171 172 171 170 171 171 169 168 167 163 167 156 147 139 133 121 122 136 143 143 139 130 127 130 120 132 144 138 130 123 98
194 230 247 167 163 153 168 137 134 175 119 136 160 161 166 169 171 171 173 176 173 173 171 171 169 171 172 164 161 155 151 148 150 127 123 127 127 133 134 143 138 134 126 134 145 150 157 145 142
211 274 261 245 197 172 148 165 185 208 131 146 159 164 168 169 171 175 177 179 177 175 172 172 169 170 171 162 160 156 161 149 144 145 133 126 117 114 120 137 141 136 144 153 160 167 159 175 165
213 230 264 274 207 162 139 153 168 193 164 148 160 171 173 174 177 178 182 183 184 177 173 171 166 170 171 163 159 152 154 161 161 155 148 148 157 145 139 156 169 166 175 175 185 186 169 98 120
270 292 332 17 125 147 126 71 232 199 173 156 168 176 181 183 186 186 181 182 182 180 175 172 166 168 169 167 168 169 160 161 163 175 177 154 154 157 156 150 172 179 174 180 168 173 184 112 128
44 49 67 277 123 157 157 244 199 185 174 160 167 177 186 192 195 191 189 190 189 180 178 173 172 169 167 165 165 167 176 163 172 179 178 182 173 167 155 164 173 178 182 183 169 169 177 178 143
11 144 117 98 171 133 192 253 153 187 177 166 173 181 187 195 199 203 198 193 190 180 178 176 174 172 170 170 175 184 194 193 194 196 193 187 167 172 163 146 161 170 167 167 176 163 157 154 144
185 115 25 115 195 166 186 258 131 183 197 175 179 184 183 198 206 205 205 199 191 178 177 177 181 183 182 184 189 201 207 213 213 211 223 229 206 179 179 153 141 156 164 169 173 180 169 160 159
134 115 118 254 235 200 232 247 168 170 189 184 191 190 192 199 204 207 207 204 197 189 186 188 189 189 189 188 190 198 203 205 208 205 218 218 221 209 191 176 166 156 172 174 172 174 176 175 172
142 95 182 280 174 185 320 314 124 152 197 198 194 196 196 200 207 214 215 210 206 199 197 195 198 198 197 194 195 203 201 200 198 191 194 188 201 212 193 187 185 198 185 178 176 171 172 179 175
153 161 202 185 341 35 109 354 107 59 89 190 208 206 202 199 209 215 217 215 212 208 204 204 203 206 206 200 200 205 203 206 202 201 206 199 206 221 193 189 200 200 180 178 175 190 188 194 215
212 203 188 184 79 187 75 276 321 195 214 242 206 205 209 205 208 213 214 216 214 214 211 211 210 211 213 210 210 212 210 207 209 210 211 211 215 211 212 219 203 210 198 194 192 190 216 225 236
213 137 173 173 137 65 330 80 265 174 229 230 218 212 211 213 212 209 211 216 219 217 215 216 215 214 216 215 218 218 213 215 217 214 214 213 218 221 221 209 210 216 221 211 206 207 209 210 229
108 85 38 44 90 66 230 127 281 191 233 245 220 217 216 213 218 215 215 218 218 222 219 218 217 216 217 217 224 223 219 216 216 218 214 212 220 228 221 218 212 215 215 218 211 209 214 226 238
96 83 23 32 49 207 345 91 231 296 281 235 222 216 216 217 219 224 217 217 219 222 221 220 219 217 218 219 222 222 225 222 222 221 219 217 222 224 214 215 216 220 222 225 217 215 217 227 229
123 151 152 163 168 208 16 194 176 310 351 21 240 227 210 217 226 230 219 223 220 221 223 223 221 222 219 221 223 226 225 226 225 222 221 221 223 224 223 224 224 224 233 228 227 216 224 236 239
157 67 171 105 13 85 241 297 329 360 14 12 27 40 233 232 234 234 232 222 228 226 223 225 226 224 224 224 224 226 227 227 225 223 225 223 224 224 228 235 237 233 236 233 234 230 236 239 244
92 108 75 15 119 142 310 63 309 348 348 347 358 357 346 283 244 241 230 223 224 231 232 229 231 231 230 226 228 227 228 228 227 225 225 223 222 225 233 242 244 242 236 236 234 237 237 239 242
3 19 37 108 98 148 155 279 17 323 325 338 340 345 345 337 286 239 237 232 226 228 228 232 231 232 232 231 228 229 228 230 227 225 225 224 222 221 230 240 245 244 238 237 240 244 245 248 247
70 73 86 115 218 33 113 223 57 352 350 359 351 349 355 358 346 300 234 230 222 225 227 228 231 234 233 232 231 231 231 230 228 227 226 227 223 223 229 233 237 241 238 240 247 252 258 259 256